Погода Березино

Погода Березино : погода сейчас, прогноз погоды и архив. Всё, что Вы хотите узнать о погоде Березино!

Хотите узнать прогноз погоды Березино? Тогда Вам сюда: Погода Березино

Поиск расширенной информации на нашем сайте:

Другие новости

Новости СМИ2

Главная страница сайта

Новости сайта

02.10.2013

Напоминаем, что на нашем новом сайте вы можете получить высокодетализированные прогнозы погоды по пунктам России, СНГ и мира (включающие важные для авиации метеовеличины, такие как направление и скорость ветра, видимость, явления погоды, количество и форма облачности, нижняя и верхняя граница облачности), а также ознакомиться с разнообразными материалами по авиационной метеорологии и подборкой полезных ссылок на эту тему.

Сайт Метеоцентр.Азия посвящён разработке технологий оптимизации авиаметеорологического обслуживания, включая проектирование и перспективное создание нескольких автоматизированных авиаметеорологических систем:
- система выпуска высокодетальных прогностических карт явлений погоды для нижнего воздушного пространства по России и ближнему зарубежью;
- система верификации прогнозов TAF (выпускаемых синоптиками официальных АМСГ РФ и ближнего зарубежья) и AUTOTAF (выпускаемых сайтом Метеоцентр.Азия) - выявление ошибок, онлайн-сопоставление с фактической погодой METAR, автоматическое внесение коррективов в прогнозы при резком отклонении фактической погоды от прогноза, подсчёт оправдываемости прогнозов по элементам и в целом;
- система обработки, анализа и отображения авиаметеорологической информации для применения провайдерами метеорологической информации.


Погода Березино - сегодня

Время (UTC), дата Ветер
(°,м/с) 
Видим.   Явления Облачность Т
(°С)
Тd
(°С)
f(%) Тe
(°С)
Pmin
(гПа)
dP
(гПа)
Po
(мм)
O2
(г/м3)
Тmin Tmax R s Состояние
почвы
12 21.01.17 340 (С) 4{10}  10 км  в посл. час ливневой снег  9/9 400 м кучево-дожд. 
[Cb calv]
+1.4 +0 90 -1  1022  0.3  752  301           
18 21.01.17 300 (СЗ) 10 км    3/0 средняя 
[Ac und]
-0.6 -2.4 88 -1  1026.9  2.6  756  305    +2.1  0.3  18   
21 21.01.17 300 (СЗ) 10 км    ясно 
-5 -5.3 98 -5  1029.2  1.8  757  311           
00 22.01.17 320 (СЗ) 10 км    9/9 360 м 
[Sc]
-1.6 -3 90 -4  1030.2  1.4  758  308           
03 22.01.17 230 (ЮЗ) 10 км    9/9 600 м 
[Sc]
-1.9 -3.7 87 -1  1030.1  -0.1  758  308        18   
06 22.01.17 280 (З) 10 км    9/9 750 м 
[Sc]
-2.7 -3.4 95 -5  1030.2  758  309  -5.5      18  равномерный
мокрый или
старый снег
100% 
09 22.01.17 270 (З) 10 км    10/10 210 м 
[St]
-2.6 -3.2 96 -5  1030.1  -0.1  758  309           
12 22.01.17 250 (З) 10 км    10/10 210 м 
[St]
-0.8 -1.5 95 -3  1028.9  -1.1  757  306           
15 22.01.17 260 (З) 10 км    10/10 240 м 
[St]
-0.1 -0.9 94 -3  1027.9  -0.9  756  305           
18 22.01.17 240 (ЮЗ) 4{11}  10 км    10/10 210 м 
[St]
-0.3 -1.2 94 -3  1027.6  -0.4  756  305    +0.1    18   
21 22.01.17 280 (З) 4{10}  10 км    10/10 210 м 
[St]
-0.8 -1.2 97 -3  1027.3  -0.3  756  306           
00 23.01.17 240 (ЮЗ) 3{10}  10 км    10/10 240 м 
[St]
-1.5 -2 96 -3  1026.8  -0.5  755  306           
03 23.01.17 270 (З) 10 км    10/10 270 м 
[St]
-1.4 -1.9 96 -3  1025.6  -1.2  755  306        18   
06 23.01.17 240 (ЮЗ) 10 км    10/10 240 м 
[St]
-1.7 -2.2 96 -4  1024.3  -1.3  754  306  -1.9      18  равномерный
мокрый или
старый снег
100% 
09 23.01.17 210 (ЮЗ) 4{10}  10 км    10/10 210 м 
[St]
-2 -2.6 96 -5  1023.5  -0.8  753  306           
12 23.01.17 240 (ЮЗ) 5-11{11}  10 км    10/10 210 м 
[St]
-1.9 -2.7 94 -5  1021.3  -2  751  305           
15 23.01.17 240 (ЮЗ) 3{11}  10 км    10/10 210 м 
[St]
-1.9 -2.5 96 -4  1020.2  -1.1  751  305          затоплена
водой 
18 23.01.17 230 (ЮЗ) 10 км    10/10 330 м 
[St]
-1.7 -2.8 92 -4  1019.3  -0.9  750  304    -1.5    18   
21 23.01.17 260 (З) 3{10}  10 км    10/10 270 м 
[St]
-1.8 -2.9 92 -4  1018.3  -1  749  304           
00 24.01.17 260 (З) 3{10}  10 км    10/10 300 м 
[St]
-1.9 -3 92 -4  1017.3  -1  748  304           
03 24.01.17 240 (ЮЗ) 10 км    10/10 330 м 
[St]
-2.4 -3.6 91 -3  1016.3  -1  748  304        18   
06 24.01.17 220 (ЮЗ) 10 км    10/10 360 м 
[St]
-2.1 -3.3 91 -4  1015.9  -0.4  747  304  -2.6      18  равномерный
мокрый или
старый снег
100% 
09 24.01.17 230 (ЮЗ) 10 км    10/10 300 м 
[St]
-0.9 -2.5 89 -3  1016.3  0.5  748  303           
12 24.01.17 270 (З) 10 км    10/10 300 м 
[St]
+0.5 -1.7 85 1016.1  -0.1  748  301           
15 24.01.17 280 (З) 10 км    9/9 600 м 
[Sc]
+0.8 -0.9 88 1016.5  0.4  748  301           
Время (UTC), дата Ветер
(°,м/с) 
Видим.   Явления Облачность Т
(°С)
Тd
(°С)
f(%) Тe
(°С)
Pmin
(гПа)
dP
(гПа)
Po
(мм)
O2
(г/м3)
Тmin Tmax R s Состояние
почвы

Для получения пояснительной информации подведите курсор к названию столбца.

ПОГОДА Березино - архив

Всё, что Вы хотите узнать о погоде Березино - удобно и подробно!

Выберите нужную дату (начиная с 1 января 2015* года) и нажмите кнопку "Найти".
Будут отображены архивные сводки погоды по пункту Березино, начиная с указанной даты.


Отображать данные в формате CSV (для использования в таблицах Excel)


Внимание! Наш архив погоды предназначен исключительно для личного некоммерческого использования в познавательных целях. Если Вам необходимы официальные справки о состоянии погоды (для производственных, юридических, коммерческих и т.п. целей), обращайтесь в органы Росгидромета.

*Примечание: данная дата относится к архиву по метеостанциям СССР (Россия, СНГ, Балтия).
Архив по метеостанциям Зарубежной Европы и Азии (кроме Китая) хранится 10 дней, по другим регионам земного шара (Китай, Африка, Америка, Австралия, Океания) - 1 день.

Березино - район местоположения метеостанции


Название, широта, долгота, высота метеостанции:
Березино 53.8°ш. 29°д. 154 м над ур. моря [Беларусь]

Дополнительная информация

В oтличие oт бoльшинства пoгoдных сайтoв мы публикуем пoдрoбную метеoинфoрмацию в детальнoм прoфессиoнальнoм фoрмате.

Характеристики температуры и влажнoсти вoздуха измеряются на высoте 2 м в тени вдали oт зданий и деревьев.
Скoрoсть ветра измеряется на высoте 10 м (на урoвне рoста челoвека скoрoсть ветра ниже в 1.5-2 раза). Если метеoстанция нахoдится в гoрoде или в лесу, тo скoрoсть ветра занижена на 2-4 м/с пo сравнению с oткрытым местoм. Скoрoсть ветра над акватoриями крупных рек и oзёр, а также на вершинах хoлмoв на 2-5 м/с выше, чем в oбычных услoвиях.
Атмoсфернoе давление в разных тoчках местнoсти мoжет значительнo oтличаться oт давления на метеoстанции, в зависимoсти oт услoвий рельефа (при пoдъёме на 10 м давление пoнижается примернo на 1 мм рт.ст.).